Location: Newark
(33.8183°N, 118.0392°W)
Time: 14:52:08
(UTC+00:00)

Envisat - Visible Passes

Search period start: 19 October 2019 00:00
Search period end: 29 October 2019 00:00
Orbit: 764 x 766 km, 98.1° (Epoch: 19 October)

Date Brightness Start Highest point End Pass type
(mag) Time Alt. Az. Time Alt. Az. Time Alt. Az.
19 Oct 5.5 03:04:01 10° SW 03:07:52 22° W 03:11:44 10° NW visible
20 Oct 3.9 02:26:02 10° S 02:30:57 52° W 02:35:55 10° NNW visible
21 Oct 3.0 01:49:12 10° SSE 01:54:13 65° ENE 01:59:15 10° N visible
21 Oct 6.2 03:32:06 10° WSW 03:33:35 11° W 03:35:06 10° WNW visible
22 Oct 5.1 02:52:14 10° SSW 02:56:33 28° W 03:00:53 10° NW visible
22 Oct 6.5 13:27:50 10° ENE 13:29:55 12° E 13:31:59 10° ESE visible
23 Oct 3.3 02:14:38 10° S 02:19:41 68° W 02:24:45 10° NNW visible
24 Oct 3.2 01:38:06 10° SSE 01:43:00 50° ENE 01:47:53 10° N visible
24 Oct 5.9 03:19:22 10° SW 03:22:13 15° W 03:25:06 10° WNW visible
25 Oct 4.6 02:40:36 10° SSW 02:45:14 36° W 02:49:54 10° NNW visible
26 Oct 3.0 02:03:20 10° SSE 02:08:25 88° WSW 02:13:31 10° NNW visible
27 Oct 3.5 01:27:07 10° SE 01:31:46 38° ENE 01:36:28 10° N visible
27 Oct 5.6 03:07:14 10° SW 03:10:52 20° W 03:14:31 10° NW visible
27 Oct 6.1 13:40:50 10° NE 13:44:18 18° E 13:47:44 10° SE visible
28 Oct 4.0 02:29:04 10° S 02:33:56 47° W 02:38:49 10° NNW visible
